{"data":{"norad_id":56027,"intl_designator":"2023-042AT","name":"STARLINK-5777","alt_names":[],"object_type":"PAYLOAD","status":"ACTIVE","operator":null,"country":"US","launch_date":"2023-03-24","launch_site_code":"AFETR","launch_vehicle":null,"mission":null,"orbit_class":"UNKNOWN","rcs_meters":null,"size_class":null,"mass_kg":null,"dimensions":null,"purposes":["comms"],"wikipedia_slug":null,"has_3d_model":false,"image_url":null,"decayed_at":null,"tle_current":{"epoch":"2026-05-24T22:52:57.876960Z","epoch_age_seconds":86046,"freshness":"FRESH","line1":"1 56027U 23042AT  26144.95344765 -.00000136  00000+0  45704-5 0  9996","line2":"2 56027  43.0042 334.1353 0001246 267.1117  92.9593 15.27575558174701","mean_motion":15.27575558,"eccentricity":0.0001246,"inclination_deg":43.0042,"raan_deg":334.1353,"arg_perigee_deg":267.1117,"mean_anomaly_deg":92.9593,"bstar":4.5704e-6,"rev_number":17470,"period_min":94.267022829649,"perigee_km":482.20749157302,"apogee_km":483.91730246275,"semimajor_km":6861.1993970179,"source":"CELESTRAK","updated_at":"2026-05-25T13:38:17.949870Z"}}}